Meath Environmental Platform

Observations for Trim Patrick St

Time AQI Temp °C Hum % Pres Pa CO μg/m³ H₂S μg/m³ NO μg/m³ NO₂ μg/m³ O₃ μg/m³ SO₂ μg/m³ PM1 μg/m³ PM2.5 μg/m³ PM10 μg/m³
Friday 31 July 2026
16:08 2 28.8 30 69,110 0 0 1.54 10.45 79.14 9.85 3.71 9.26 10.19
16:07 2 28.7 30 69,108 0 0 1.61 8.92 74.62 9.33 3.71 10.9 11.99
16:06 2 28.6 30 69,100 0 0 1.58 9.16 71.5 9.59 2.86 9.25 10.18
16:05 2 28.5 31 69,098 0 0 1.48 7.44 64.22 8.91 3.71 9.99 10.99
16:04 2 28.4 31 69,096 0 0 1.56 8.01 73.13 9.3 2.86 8.43 9.28
16:03 2 28.3 32 69,088 0 0 1.49 8.64 75.62 9.32 3.71 9.13 10.04
16:02 2 28.2 31 69,110 0 0 1.66 6.25 68.25 9.21 2.86 8.4 9.24
16:01 2 28.2 32 69,110 0 0 1.66 4.32 31.25 8.03 2 9.19 10.1
16:00 2 28.1 33 69,110 0 0 1.55 9.73 78.9 9.47 2 8.27 9.09
15:59 2 28 33 69,080 0 0 1.62 6.78 71.19 9.2 2 9.09 10
15:58 2 27.9 33 69,071 0 0 1.68 7.28 73.34 9.04 2 8.3 9.13
15:57 2 27.8 33 69,088 0 0 1.7 6.7 55.43 8.31 2 9.1 10.01
15:56 2 27.7 34 69,086 0 0 1.67 5.9 69.53 9.27 2.86 9.04 9.95
15:55 2 27.6 34 69,084 0 0 1.67 9.08 73.36 8.71 3.71 9.81 10.8
15:53 2 27.5 34 69,045 0 0 1.69 8.15 70.57 8.81 2 8.22 9.04
15:51 2 27.4 34 69,035 0 0 1.65 7.33 69.36 8.85 2.86 8.19 9.01
15:50 2 27.4 35 69,047 0 0 1.67 10.02 72.25 8.02 2 8.97 9.87
15:48 2 27.3 34 69,057 0 0 1.81 9.45 60.27 6.97 3.71 9.02 9.92
15:47 2 27.2 35 69,072 0 0 1.75 7.21 67.15 8.68 2.86 8.96 9.85
15:46 2 27.1 35 69,096 0 0 1.78 10.97 91.18 7.46 2.86 8.95 9.84